Date String (YYYY-MM-DD hh:mm:ss) UTC,Instrument flags,Ambient pressure (hPa),Sample flow (lpm),Bypass flow (lpm),Sample temperature (°C),Ambient temperature (°C),ASC tube jacket temperature (°C),LED temperature (°C),Box temperature (°C),Sample RH (%),Span deviation,Mass concentration (μg/m³),Mass concentration (μg/m³),Mass concentration (μg/m³)
DateTimeUTC,F1_M11,P_M11,Q1_M11,Q2_M11,T1_M11,T2_M11,T3_M11,T4_M11,T5_M11,U1_M11,ZSPAN_M11,X0_M11,X2_M11,X1_M11
2022-05-28 09:00:00,,0820.3,5.01,0.00,30.1,29.0,00.0,39.1,32.0,12.0,0000.0,0011.39,0004.08,0003.20
2022-05-28 09:01:00,,0820.3,4.99,0.00,30.1,29.0,00.0,39.1,32.0,11.9,0000.0,0011.23,0004.14,0003.22
2022-05-28 09:02:00,,0820.3,5.00,0.00,30.2,29.0,00.0,39.1,32.0,11.9,0000.0,0010.60,0004.12,0003.23
2022-05-28 09:03:00,,0820.3,4.99,0.00,30.1,29.0,00.0,39.1,31.9,11.8,0000.0,0009.90,0004.13,0003.23
2022-05-28 09:04:00,,0820.2,5.00,0.00,30.2,29.0,00.0,39.1,31.9,11.9,0000.0,0010.50,0004.15,0003.24
2022-05-28 09:05:00,,0820.2,5.02,0.00,30.1,29.0,00.0,39.1,31.9,11.8,0000.0,0010.57,0004.19,0003.25
2022-05-28 09:06:00,,0820.2,5.00,0.00,30.2,29.0,00.0,39.1,31.9,11.8,0000.0,0010.84,0004.19,0003.25
2022-05-28 09:07:00,,0820.2,5.00,0.00,30.2,29.0,00.0,39.1,31.9,11.8,0000.0,0010.59,0004.22,0003.27
2022-05-28 09:08:00,,0820.2,5.00,0.00,30.2,29.0,00.0,39.1,31.9,11.8,0000.0,0010.72,0004.31,0003.27
2022-05-28 09:09:00,,0820.2,5.00,0.00,30.1,29.0,00.0,39.1,32.0,12.0,0000.0,0010.94,0004.37,0003.28
2022-05-28 09:10:00,,0820.2,5.01,0.00,30.2,29.0,00.0,39.1,32.0,12.0,0000.0,0011.12,0004.41,0003.29
2022-05-28 09:11:00,,0820.1,5.00,0.00,30.2,29.0,00.0,39.1,32.0,11.8,0000.0,0011.05,0004.39,0003.31
2022-05-28 09:12:00,,0820.1,5.00,0.00,30.2,29.0,00.0,39.1,32.0,11.7,0000.0,0010.80,0004.31,0003.30
2022-05-28 09:13:00,,0820.2,5.00,0.00,30.2,29.0,00.0,39.1,32.0,12.0,0000.0,0010.74,0004.30,0003.29
2022-05-28 09:14:00,,0820.2,5.00,0.00,30.2,29.0,00.0,39.1,32.0,11.8,0000.0,0011.08,0004.31,0003.30
2022-05-28 09:15:00,,0820.2,5.01,0.00,30.2,29.0,00.0,39.1,32.0,11.6,0000.0,0010.12,0004.32,0003.32
2022-05-28 09:16:00,,0820.1,5.01,0.00,30.2,29.0,00.0,39.1,32.0,11.6,0000.0,0010.52,0004.32,0003.33
2022-05-28 09:17:00,,0820.1,5.00,0.00,30.2,29.0,00.0,39.1,32.0,11.7,0000.0,0010.66,0004.33,0003.34
2022-05-28 09:18:00,,0820.1,4.99,0.00,30.2,29.0,00.0,39.1,32.0,11.6,0000.0,0011.04,0004.36,0003.37
2022-05-28 09:19:00,,0820.1,4.99,0.00,30.2,29.0,00.0,39.1,32.0,11.7,0000.0,0011.30,0004.37,0003.39
2022-05-28 09:20:00,,0820.1,5.00,0.00,30.2,29.0,00.0,39.1,32.0,11.6,0000.0,0012.23,0004.34,0003.41
2022-05-28 09:21:00,,0820.0,5.00,0.00,30.2,29.0,00.0,39.1,32.0,11.7,0000.0,0012.41,0004.34,0003.43
2022-05-28 09:22:00,,0820.0,4.99,0.00,30.2,29.0,00.0,39.1,32.0,11.6,0000.0,0012.48,0004.40,0003.45
2022-05-28 09:23:00,,0820.0,5.00,0.00,30.2,29.0,00.0,39.1,32.0,11.4,0000.0,0012.73,0004.46,0003.47
2022-05-28 09:24:00,,0820.0,4.98,0.00,30.2,29.0,00.0,39.1,32.0,11.4,0000.0,0013.00,0004.50,0003.50
2022-05-28 09:25:00,,0820.0,5.01,0.00,30.2,29.0,00.0,39.1,32.0,11.4,0000.0,0012.77,0004.49,0003.51
2022-05-28 09:26:00,,0820.0,5.00,0.00,30.2,29.0,00.0,39.1,32.0,11.4,0000.0,0012.26,0004.49,0003.51
2022-05-28 09:27:00,,0820.0,5.00,0.00,30.2,29.0,00.0,39.1,32.0,11.4,0000.0,0012.07,0004.49,0003.53
2022-05-28 09:28:00,,0820.0,5.00,0.00,30.2,29.0,00.0,39.1,32.0,11.3,0000.0,0012.27,0004.51,0003.54
2022-05-28 09:29:00,,0819.9,4.98,0.00,30.2,29.0,00.0,39.1,32.0,11.2,0000.0,0011.91,0004.49,0003.54
2022-05-28 09:30:00,,0820.0,5.01,0.00,30.2,29.0,00.0,39.1,32.0,11.1,0000.0,0011.67,0004.49,0003.54
2022-05-28 09:31:00,,0819.9,5.00,0.00,30.2,29.0,00.0,39.1,32.0,11.2,0000.0,0010.86,0004.51,0003.55
2022-05-28 09:32:00,,0820.0,5.00,0.00,30.2,29.0,00.0,39.1,32.0,11.2,0000.0,0010.47,0004.51,0003.56
2022-05-28 09:33:00,,0820.0,5.00,0.00,30.2,29.0,00.0,39.1,32.0,11.1,0000.0,0011.07,0004.49,0003.54
2022-05-28 09:34:00,,0820.0,5.00,0.00,30.2,29.0,00.0,39.1,32.0,10.9,0000.0,0011.49,0004.51,0003.56
2022-05-28 09:35:00,,0819.9,5.02,0.00,30.2,29.0,00.0,39.1,32.0,11.0,0000.0,0011.43,0004.51,0003.57
2022-05-28 09:36:00,,0819.9,4.99,0.00,30.2,29.0,00.0,39.1,32.0,10.9,0000.0,0011.52,0004.52,0003.60
2022-05-28 09:37:00,,0819.9,4.98,0.00,30.2,29.0,00.0,39.1,32.0,11.0,0000.0,0013.37,0004.52,0003.62
2022-05-28 09:38:00,,0819.9,4.99,0.00,30.2,29.0,00.0,39.1,32.0,11.0,0000.0,0014.22,0004.55,0003.64
2022-05-28 09:39:00,,0819.9,5.01,0.00,30.2,29.0,00.0,39.1,32.0,11.0,0000.0,0013.55,0004.54,0003.66
2022-05-28 09:40:00,,0819.9,5.01,0.00,30.2,29.0,00.0,39.1,32.0,11.0,0000.0,0013.46,0004.56,0003.68
2022-05-28 09:41:00,,0819.9,5.00,0.00,30.2,29.0,00.0,39.1,32.0,10.9,0000.0,0013.76,0004.60,0003.69
2022-05-28 09:42:00,,0819.9,4.99,0.00,30.2,29.0,00.0,39.1,32.0,11.1,0000.0,0014.02,0004.63,0003.72
2022-05-28 09:43:00,,0819.9,5.00,0.00,30.2,29.1,00.0,39.1,32.0,11.8,0000.0,0013.97,0004.67,0003.74
2022-05-28 09:44:00,,0819.9,5.01,0.00,30.2,29.1,00.0,39.1,32.0,11.6,0000.0,0013.58,0004.72,0003.76
2022-05-28 09:45:00,,0819.9,5.00,0.00,30.2,29.1,00.0,39.1,32.0,11.4,0000.0,0013.30,0004.73,0003.76
2022-05-28 09:46:00,,0819.9,4.99,0.00,30.2,29.1,00.0,39.1,32.0,11.2,0000.0,0013.67,0004.71,0003.77
2022-05-28 09:47:00,,0819.9,4.98,0.00,30.2,29.1,00.0,39.1,32.0,10.9,0000.0,0013.58,0004.74,0003.78
2022-05-28 09:48:00,,0819.9,5.01,0.00,30.2,29.1,00.0,39.1,32.0,10.9,0000.0,0012.20,0004.75,0003.79
2022-05-28 09:49:00,,0819.9,5.00,0.00,30.2,29.1,00.0,39.1,32.0,11.2,0000.0,0011.35,0004.72,0003.79
2022-05-28 09:50:00,,0819.9,5.00,0.00,30.2,29.1,00.0,39.1,32.0,11.4,0000.0,0011.15,0004.70,0003.78
2022-05-28 09:51:00,,0819.9,5.01,0.00,30.2,29.1,00.0,39.1,32.0,11.1,0000.0,0011.14,0004.70,0003.79
2022-05-28 09:52:00,,0819.9,4.99,0.00,30.2,29.1,00.0,39.1,32.0,10.9,0000.0,0010.85,0004.66,0003.80
2022-05-28 09:53:00,,0819.9,5.01,0.00,30.2,29.1,00.0,39.1,32.0,11.0,0000.0,0010.46,0004.62,0003.79
2022-05-28 09:54:00,,0819.9,5.01,0.00,30.2,29.1,00.0,39.1,32.0,10.9,0000.0,0010.39,0004.60,0003.77
2022-05-28 09:55:00,,0819.9,5.00,0.00,30.2,29.1,00.0,39.1,32.0,11.0,0000.0,0010.16,0004.57,0003.77
2022-05-28 09:56:00,,0819.9,4.99,0.00,30.2,29.1,00.0,39.1,32.0,11.0,0000.0,0010.03,0004.58,0003.78
2022-05-28 09:57:00,,0819.9,5.01,0.00,30.2,29.1,00.0,39.1,32.0,11.2,0000.0,0010.20,0004.59,0003.78
2022-05-28 09:58:00,,0819.9,5.00,0.00,30.2,29.1,00.0,39.1,32.0,11.3,0000.0,0009.96,0004.59,0003.77
2022-05-28 09:59:00,,0819.8,5.00,0.00,30.2,29.1,00.0,39.1,32.0,11.4,0000.0,0009.49,0004.54,0003.75
